This is the latest recevied weather packets stored in our database for station/object WB6ANP. If no packets are shown the sender has not sent any weather packets the latest 10 day(s).
| Time | Temp. | Humidity | Pressure | Rain* | Wind** | Luminosity | Snow |
|---|---|---|---|---|---|---|---|
| 1777417878 | 21.67° C | 91% | 1008.7 hPa | 0 mm | - | 101 W/m² | - |
| 1777417575 | 21.11° C | 90% | 1008.6 hPa | 0 mm | - | 76 W/m² | - |
| 1777417270 | 21.11° C | 88% | 1008.9 hPa | 0.51 mm | - | 39 W/m² | - |
| 1777416967 | 20.56° C | 91% | 1008.5 hPa | 3.05 mm | - | 46 W/m² | - |
| 1777416667 | 20.56° C | 94% | 1009.3 hPa | 21.59 mm | - | 38 W/m² | - |
| 1777416363 | 20.56° C | 92% | 1009 hPa | 42.67 mm | - | 37 W/m² | - |
| 1777416063 | 21.11° C | 91% | 1010.2 hPa | 44.96 mm | - | 27 W/m² | - |
| 1777415758 | 22.22° C | 88% | 1010.6 hPa | 44.45 mm | - | 16 W/m² | - |
| 1777415454 | 23.33° C | 94% | 1010 hPa | 23.37 mm | - | 4 W/m² | - |
| 1777415150 | 23.33° C | 93% | 1009.3 hPa | 25.91 mm | - | 2 W/m² | - |
| 1777414845 | 23.33° C | 93% | 1009.1 hPa | 23.37 mm | - | 3 W/m² | - |
| 1777414545 | 23.89° C | 85% | 1009.5 hPa | 11.94 mm | - | 2 W/m² | - |
| 1777414245 | 26.11° C | 85% | 1009.1 hPa | 2.29 mm | - | 5 W/m² | - |
| 1777413940 | 26.67° C | 82% | 1009 hPa | 0 mm | - | 13 W/m² | - |
| 1777413636 | 26.67° C | 81% | 1008.7 hPa | 0 mm | - | 25 W/m² | - |
| 1777413332 | 26.67° C | 80% | 1008 hPa | 0 mm | - | 28 W/m² | - |
| 1777413028 | 27.22° C | 79% | 1008.4 hPa | 0 mm | - | 29 W/m² | - |
| 1777412728 | 27.22° C | 79% | 1008.7 hPa | 0 mm | - | 26 W/m² | - |
| 1777412426 | 27.22° C | 79% | 1008.4 hPa | 0 mm | - | 32 W/m² | - |
| 1777412125 | 27.22° C | 78% | 1008.5 hPa | 0 mm | - | 24 W/m² | - |
| 1777411821 | 27.22° C | 77% | 1008.4 hPa | 0 mm | - | 15 W/m² | - |
| 1777411520 | 27.78° C | 76% | 1008.9 hPa | 0 mm | - | 36 W/m² | - |
| 1777411215 | 27.78° C | 77% | 1008.3 hPa | 0 mm | - | 51 W/m² | - |
| 1777410915 | 27.78° C | 76% | 1008.6 hPa | 0 mm | - | 58 W/m² | - |
| 1777410615 | 27.78° C | 76% | 1008.5 hPa | 0 mm | - | 79 W/m² | - |
* Rain latest hour (hover to see other rain measurements)
** Current wind speed in m/s (hover to see current wind gust speed)